When you browse on this site, cookies collect data to enhance your experience and personalize the content and advertising you see.
Visit our Privacy Policy to learn more. By continuing to use the site, you agree to this use of cookies and data.
  • en France
  • Liste des pays
  • À 7 jours
  • Température de l'eau
  • Carte satellitaire
  • Carte météo
  • Widgets météo
  • user-avatar
    Se connecter

    Météo par heure à Cabrayil

    Ce jour, 19 Juillet, Vendredi

    Heure Température Précipitation Vent Pression Humidité
    00:00 +27°C° 0 mm 1 m/s 704 mmHg 45%
    01:00 +27°C° 0 mm 1 m/s 704 mmHg 46%
    02:00 +26°C° 0 mm 1 m/s 704 mmHg 48%
    03:00 +25°C° 0 mm 1 m/s 704 mmHg 50%
    04:00 +26°C° 0 mm 1 m/s 705 mmHg 50%
    05:00 +26°C° 0 mm 1 m/s 706 mmHg 50%
    06:00 +26°C° 0 mm 1 m/s 706 mmHg 49%
    07:00 +28°C° 0 mm 2 m/s 706 mmHg 47%
    08:00 +29°C° 0 mm 3 m/s 707 mmHg 44%
    09:00 +30°C° 0 mm 3 m/s 707 mmHg 42%
    10:00 +32°C° 0 mm 4 m/s 707 mmHg 39%
    11:00 +34°C° 0 mm 4 m/s 707 mmHg 36%
    12:00 +35°C° 0 mm 5 m/s 707 mmHg 33%
    13:00 +35°C° 0 mm 5 m/s 706 mmHg 32%
    14:00 +36°C° 0 mm 6 m/s 706 mmHg 31%
    15:00 +36°C° 0 mm 6 m/s 706 mmHg 30%
    16:00 +35°C° 0 mm 6 m/s 706 mmHg 32%
    17:00 +34°C° 0 mm 6 m/s 706 mmHg 34%
    18:00 +33°C° 0 mm 6 m/s 706 mmHg 37%
    19:00 +32°C° 0 mm 4 m/s 707 mmHg 40%
    20:00 +29°C° 0 mm 3 m/s 707 mmHg 43%
    21:00 +28°C° 0 mm 1 m/s 708 mmHg 47%
    22:00 +28°C° 0 mm 1 m/s 708 mmHg 46%
    23:00 +27°C° 0 mm 1 m/s 708 mmHg 45%

    Demain, 20 Juillet, Samedi

    Heure Température Précipitation Vent Pression Humidité
    00:00 +27°C° 0 mm 1 m/s 708 mmHg 44%
    01:00 +27°C° 0 mm 1 m/s 709 mmHg 45%
    02:00 +26°C° 0 mm 1 m/s 709 mmHg 46%
    03:00 +26°C° 0 mm 1 m/s 709 mmHg 47%
    04:00 +26°C° 0 mm 1 m/s 709 mmHg 46%
    05:00 +27°C° 0 mm 1 m/s 709 mmHg 45%
    06:00 +25°C° 0 mm 0 m/s 710 mmHg 44%
    07:00 +29°C° 0 mm 1 m/s 710 mmHg 40%
    08:00 +30°C° 0 mm 2 m/s 710 mmHg 36%
    09:00 +33°C° 0 mm 3 m/s 711 mmHg 32%
    10:00 +34°C° 0 mm 3 m/s 711 mmHg 30%
    11:00 +35°C° 0 mm 4 m/s 711 mmHg 28%
    12:00 +36°C° 0 mm 5 m/s 711 mmHg 26%
    13:00 +36°C° 0 mm 5 m/s 710 mmHg 26%
    14:00 +37°C° 0 mm 5 m/s 710 mmHg 25%
    15:00 +37°C° 0 mm 5 m/s 709 mmHg 25%
    16:00 +36°C° 0 mm 6 m/s 709 mmHg 27%
    17:00 +35°C° 0 mm 6 m/s 710 mmHg 29%
    18:00 +34°C° 0 mm 7 m/s 710 mmHg 31%
    19:00 +32°C° 0 mm 5 m/s 710 mmHg 34%
    20:00 +29°C° 0 mm 4 m/s 710 mmHg 37%
    21:00 +28°C° 0 mm 2 m/s 711 mmHg 40%
    22:00 +27°C° 0 mm 2 m/s 711 mmHg 41%
    23:00 +27°C° 0 mm 2 m/s 711 mmHg 42%

    Après-demain, 21 Juillet, Dimanche

    Heure Température Précipitation Vent Pression Humidité
    00:00 +27°C° 0 mm 2 m/s 712 mmHg 42%
    01:00 +26°C° 0 mm 2 m/s 711 mmHg 43%
    02:00 +26°C° 0 mm 1 m/s 711 mmHg 44%
    03:00 +26°C° 0 mm 1 m/s 711 mmHg 44%
    04:00 +26°C° 0 mm 1 m/s 711 mmHg 44%
    05:00 +26°C° 0 mm 1 m/s 712 mmHg 43%
    06:00 +27°C° 0 mm 1 m/s 712 mmHg 42%
    07:00 +28°C° 0 mm 1 m/s 712 mmHg 39%
    08:00 +30°C° 0 mm 2 m/s 712 mmHg 36%
    09:00 +31°C° 0 mm 3 m/s 712 mmHg 33%
    10:00 +33°C° 0 mm 3 m/s 712 mmHg 31%
    11:00 +35°C° 0 mm 4 m/s 711 mmHg 28%
    12:00 +36°C° 0 mm 4 m/s 711 mmHg 26%
    13:00 +37°C° 0 mm 4 m/s 710 mmHg 25%
    14:00 +37°C° 0 mm 5 m/s 710 mmHg 25%
    15:00 +39°C° 0 mm 5 m/s 709 mmHg 24%
    16:00 +37°C° 0 mm 5 m/s 709 mmHg 26%
    17:00 +36°C° 0 mm 5 m/s 709 mmHg 27%
    18:00 +35°C° 0 mm 5 m/s 709 mmHg 29%
    19:00 +33°C° 0 mm 4 m/s 709 mmHg 33%
    20:00 +31°C° 0 mm 3 m/s 709 mmHg 37%
    21:00 +29°C° 0 mm 2 m/s 709 mmHg 41%
    22:00 +28°C° 0 mm 2 m/s 709 mmHg 43%
    23:00 +28°C° 0 mm 1 m/s 709 mmHg 44%

    22 Juillet, Lundi

    Heure Température Précipitation Vent Pression Humidité
    00:00 +27°C° 0 mm 1 m/s 709 mmHg 45%
    01:00 +27°C° 0 mm 1 m/s 709 mmHg 45%
    02:00 +26°C° 0 mm 1 m/s 708 mmHg 46%
    03:00 +24°C° 0 mm 0 m/s 708 mmHg 47%
    04:00 +24°C° 0 mm 0 m/s 708 mmHg 46%
    05:00 +27°C° 0 mm 1 m/s 708 mmHg 45%
    06:00 +27°C° 0 mm 1 m/s 708 mmHg 44%
    07:00 +29°C° 0 mm 1 m/s 708 mmHg 41%
    08:00 +31°C° 0 mm 2 m/s 708 mmHg 37%
    09:00 +32°C° 0 mm 2 m/s 708 mmHg 33%
    10:00 +35°C° 0 mm 3 m/s 708 mmHg 31%
    11:00 +36°C° 0 mm 4 m/s 708 mmHg 29%
    12:00 +37°C° 0 mm 4 m/s 708 mmHg 27%
    13:00 +38°C° 0 mm 4 m/s 707 mmHg 25%
    14:00 +40°C° 0 mm 5 m/s 707 mmHg 24%
    15:00 +40°C° 0 mm 5 m/s 706 mmHg 23%
    16:00 +39°C° 0 mm 5 m/s 706 mmHg 25%
    17:00 +37°C° 0 mm 5 m/s 706 mmHg 26%
    18:00 +37°C° 0 mm 5 m/s 706 mmHg 28%
    19:00 +35°C° 0 mm 4 m/s 706 mmHg 33%
    20:00 +33°C° 0 mm 3 m/s 706 mmHg 39%
    21:00 +30°C° 0 mm 2 m/s 706 mmHg 44%
    22:00 +29°C° 0 mm 2 m/s 706 mmHg 47%
    23:00 +28°C° 0 mm 2 m/s 706 mmHg 50%

    23 Juillet, Mardi

    Heure Température Précipitation Vent Pression Humidité
    00:00 +27°C° 0 mm 2 m/s 706 mmHg 53%
    01:00 +27°C° 0 mm 2 m/s 706 mmHg 54%
    02:00 +26°C° 0 mm 1 m/s 706 mmHg 55%
    03:00 +26°C° 0 mm 1 m/s 706 mmHg 56%
    04:00 +26°C° 0 mm 1 m/s 706 mmHg 53%
    05:00 +27°C° 0 mm 1 m/s 706 mmHg 50%
    06:00 +27°C° 0 mm 1 m/s 707 mmHg 48%
    07:00 +29°C° 0 mm 2 m/s 707 mmHg 43%
    08:00 +30°C° 0 mm 3 m/s 707 mmHg 39%
    09:00 +33°C° 0 mm 4 m/s 707 mmHg 35%
    10:00 +34°C° 0 mm 5 m/s 706 mmHg 33%
    11:00 +35°C° 0 mm 5 m/s 706 mmHg 31%
    12:00 +36°C° 0 mm 6 m/s 706 mmHg 29%
    13:00 +36°C° 0 mm 6 m/s 705 mmHg 29%
    14:00 +36°C° 0 mm 6 m/s 705 mmHg 29%
    15:00 +36°C° 0 mm 6 m/s 704 mmHg 29%
    16:00 +35°C° 0 mm 6 m/s 704 mmHg 31%
    17:00 +34°C° 0 mm 5 m/s 704 mmHg 33%
    18:00 +33°C° 0 mm 5 m/s 704 mmHg 35%
    19:00 +30°C° 0 mm 4 m/s 704 mmHg 40%
    20:00 +28°C° 0 mm 3 m/s 704 mmHg 45%
    21:00 +27°C° 0 mm 2 m/s 705 mmHg 50%
    22:00 +26°C° 0 mm 2 m/s 705 mmHg 50%
    23:00 +26°C° 0 mm 2 m/s 704 mmHg 50%

    24 Juillet, Mercredi

    Heure Température Précipitation Vent Pression Humidité
    00:00 +26°C° 0 mm 2 m/s 704 mmHg 51%
    01:00 +25°C° 0 mm 2 m/s 704 mmHg 50%
    02:00 +25°C° 0 mm 1 m/s 705 mmHg 50%
    03:00 +25°C° 0 mm 1 m/s 705 mmHg 49%
    04:00 +25°C° 0 mm 1 m/s 705 mmHg 49%
    05:00 +25°C° 0 mm 1 m/s 705 mmHg 48%
    06:00 +26°C° 0 mm 1 m/s 705 mmHg 47%
    07:00 +28°C° 0 mm 1 m/s 705 mmHg 42%
    08:00 +30°C° 0 mm 1 m/s 705 mmHg 37%
    09:00 +32°C° 0 mm 1 m/s 705 mmHg 32%
    10:00 +34°C° 0 mm 2 m/s 705 mmHg 29%
    11:00 +36°C° 0 mm 3 m/s 705 mmHg 27%
    12:00 +37°C° 0 mm 4 m/s 705 mmHg 24%
    13:00 +38°C° 0 mm 4 m/s 704 mmHg 23%
    14:00 +40°C° 0 mm 4 m/s 704 mmHg 23%
    15:00 +40°C° 0 mm 4 m/s 704 mmHg 22%
    16:00 +40°C° 0 mm 4 m/s 704 mmHg 23%
    17:00 +39°C° 0 mm 5 m/s 703 mmHg 24%
    18:00 +37°C° 0 mm 5 m/s 703 mmHg 25%
    19:00 +35°C° 0 mm 3 m/s 704 mmHg 28%
    20:00 +32°C° 0 mm 2 m/s 704 mmHg 32%
    21:00 +30°C° 0 mm 1 m/s 704 mmHg 36%
    22:00 +30°C° 0 mm 1 m/s 704 mmHg 37%
    23:00 +29°C° 0 mm 1 m/s 704 mmHg 37%
    Voir plus